CAPE
812 829 410 112 342 306 260 295 267 188 82 21 18 8 51 69 34 64 42 168 474 130 125 268 114 65 356 781 861 863 716 504 295 40 25 11 0 0 0 0 0 18 36
889 657 435 419 518 381 146 91 133 53 1 0 0 12 12 23 27 97 66 20 130 49 13 131 155 103 224 944 827 952 870 637 403 98 14 19 2 0 0 0 19 46 40
893 600 425 527 579 457 346 154 76 96 71 2 0 11 10 20 26 44 76 129 64 25 23 14 108 134 112 852 1023 1077 987 879 572 208 58 16 25 16 32 13 40 85 6
598 321 474 506 484 389 279 173 82 50 47 44 4 4 2 28 20 24 43 103 64 51 35 4 0 229 309 724 1222 1268 1033 897 470 290 105 51 36 14 19 61 90 13 0
310 436 594 584 541 464 364 297 174 55 19 33 24 3 0 22 28 30 7 8 70 95 123 130 0 35 385 522 1339 1267 1196 902 489 318 153 40 27 55 82 71 21 10 0
430 540 558 536 506 451 322 191 114 53 48 21 20 14 18 31 28 105 36 27 27 44 55 42 31 0 165 609 1293 1334 1256 1012 560 377 122 38 52 49 21 22 4 0 0
542 637 647 589 675 555 341 192 171 63 3 5 32 23 19 11 0 54 75 56 19 20 1 116 214 9 17 571 1123 1244 1235 990 657 330 100 42 27 0 33 3 1 0 0
539 488 356 404 351 329 292 188 124 60 0 6 17 8 1 2 0 4 47 110 62 32 9 182 129 7 0 479 894 1027 1074 893 623 263 73 39 14 3 20 16 12 5 0
432 393 386 322 294 313 171 123 91 64 7 2 0 0 8 2 3 0 30 58 131 71 123 343 300 379 311 622 875 877 872 743 581 200 64 1 5 57 5 40 10 1 0
502 409 348 246 241 112 104 156 129 116 73 27 56 42 6 24 0 0 18 66 76 36 55 238 281 290 553 520 811 1029 910 608 478 224 43 4 77 20 34 21 5 0 0
438 296 333 274 221 147 73 60 89 84 90 59 21 30 25 5 20 10 0 4 43 12 113 211 156 151 185 267 560 725 710 495 375 123 50 78 39 29 23 2 0 0 10
328 408 397 221 204 83 41 73 92 98 61 75 99 118 97 0 0 0 8 11 24 25 74 140 219 67 40 14 28 241 366 83 149 56 50 45 11 32 0 0 0 4 4
247 403 240 112 38 59 124 114 76 35 80 90 124 109 110 52 28 0 0 1 1 91 109 128 408 85 37 50 3 75 86 13 36 41 7 19 9 0 0 9 0 9 22
256 141 34 50 134 240 193 24 27 24 92 54 105 87 90 67 105 70 45 3 21 161 206 202 300 174 83 73 69 4 0 0 0 0 1 8 20 0 0 10 10 28 14
0 5 13 106 239 188 61 27 32 95 113 23 84 58 60 81 6 0 58 65 65 76 65 131 125 213 157 44 13 2 2 2 0 0 1 25 0 0 8 6 8 19 0
114 10 195 287 199 140 107 103 54 44 26 10 36 37 43 90 91 93 3 25 51 9 37 74 37 146 64 3 3 2 1 4 0 10 11 0 0 11 0 0 0 0 0
43 134 236 222 113 157 157 14 44 48 12 15 11 16 46 79 120 42 61 0 88 19 30 27 46 6 1 3 4 4 14 14 3 0 1 9 11 0 0 0 0 0 0
1 1 90 138 117 100 44 23 1 8 40 10 4 21 14 74 91 107 53 92 73 18 14 38 3 3 2 3 8 11 2 4 2 0 2 3 0 0 0 0 0 0 0
10 34 89 51 40 37 28 72 63 51 22 24 21 20 24 64 46 54 67 38 18 2 1 3 3 3 8 9 4 3 3 1 1 0 0 0 0 0 0 0 0 0 0
10 26 76 67 16 0 0 0 6 57 93 29 19 31 22 28 10 24 35 24 5 2 2 2 3 5 1 2 1 1 3 3 1 0 0 0 0 0 0 0 0 0 0
23 76 15 0 0 0 1 0 4 48 71 44 19 0 2 8 21 11 16 24 24 7 2 3 2 2 2 2 1 2 1 1 1 0 0 0 0 0 0 0 0 0 0
37 34 0 0 0 0 0 0 3 42 65 18 3 0 0 0 6 7 8 3 0 0 2 2 2 1 2 1 3 2 1 0 1 0 0 0 0 0 0 0 0 0 0
28 11 0 0 0 0 0 0 0 41 30 0 0 0 2 0 0 0 0 0 0 0 0 0 0 1 0 1 1 1 0 0 0 0 0 0 0 0 0 0 0 0 0
3 29 6 0 0 0 0 0 0 0 0 4 0 0 0 1 1 1 1 1 1 0 0 0 0 0 0 0 0 0 0 0 0 0 0 0 0 0 0 0 0 0 0
2 41 0 0 0 0 0 0 0 0 0 1 0 0 0 0 0 0 1 1 0 0 0 0 0 0 0 0 0 0 0 0 0 0 0 0 0 0 0 0 0 0 0
9 22 6 0 0 0 0 0 0 0 0 0 0 0 0 0 0 0 0 0 1 0 0 0 0 0 0 0 0 0 0 0 0 0 0 0 0 0 0 0 0 0 0
CIN
-135 -91 -149 -209 -156 -157 -125 -73 -60 -74 -115 -143 -98 -17 -67 -109 -24 -72 -96 -27 -13 -10 -22 -36 -91 -140 -26 -9 -8 -0 -0 -1 -13 -25 -28 -78 -0 -0 -0 -0 -0 -39 -18
-95 -114 -126 -108 -104 -116 -109 -63 -26 -71 -86 -0 -0 -33 -29 -26 -18 -53 -74 -23 -22 -51 -19 -47 -53 -88 -36 -0 -8 -0 -0 -0 -8 -32 -102 -77 -49 -0 -0 -0 -19 -16 -3
-92 -109 -113 -54 -44 -65 -60 -64 -35 -25 -31 -11 -0 -24 -26 -26 -25 -27 -89 -63 -46 -29 -28 -23 -57 -54 -48 -0 -0 -0 -0 -5 -3 -26 -67 -69 -70 -49 -3 -8 -7 -0 -1
-132 -149 -91 -55 -37 -56 -57 -41 -30 -24 -30 -19 -3 -17 -27 -33 -28 -24 -28 -57 -64 -38 -74 -37 -0 -26 -15 -0 -0 -0 -0 -12 -31 -19 -32 -36 -18 -40 -26 -1 -0 -16 -1
-177 -121 -67 -36 -21 -24 -27 -23 -21 -28 -34 -30 -20 -17 -0 -25 -27 -31 -40 -31 -49 -82 -76 -57 -0 -47 -13 -12 -0 -0 -0 -4 -14 -0 -2 -15 -6 -7 -0 -0 -22 -19 -0
-119 -85 -55 -39 -21 -22 -25 -26 -26 -32 -29 -44 -21 -23 -26 -30 -36 -29 -38 -43 -40 -27 -33 -47 -119 -0 -32 -5 -0 -0 -0 -0 -2 -0 -8 -13 -7 -1 -1 -1 -20 -0 -0
-69 -40 -22 -19 -20 -20 -21 -28 -25 -28 -43 -36 -12 -16 -35 -49 -0 -47 -35 -32 -35 -24 -14 -50 -37 -68 -85 -10 -1 -0 -0 -0 -0 -2 -21 -15 -6 -0 -2 -14 -25 -0 -0
-32 -27 -21 -27 -33 -27 -32 -36 -25 -26 -0 -18 -10 -27 -41 -72 -0 -49 -42 -29 -32 -27 -20 -34 -33 -41 -0 -23 -2 -2 -0 -0 -0 -4 -16 -17 -30 -1 -6 -0 -2 -6 -0
-33 -34 -25 -26 -30 -22 -29 -22 -14 -22 -9 -14 -0 -0 -28 -34 -67 -5 -34 -35 -22 -19 -27 -17 -23 -31 -29 -21 -7 -1 -0 -0 -0 -14 -25 -25 -7 -1 -7 -2 -13 -11 -0
-33 -45 -45 -38 -31 -46 -45 -25 -22 -24 -20 -20 -26 -45 -25 -33 -0 -0 -35 -19 -20 -14 -19 -14 -14 -40 -37 -42 -13 -0 -0 -0 -1 -6 -4 -2 -0 -2 -0 -13 -30 -0 -0
-52 -55 -34 -33 -35 -38 -46 -44 -35 -35 -32 -34 -56 -26 -30 -32 -52 -28 -0 -16 -35 -38 -33 -27 -41 -62 -79 -61 -31 -9 -0 -0 -0 -5 -5 -0 -11 -1 -1 -0 -0 -0 -0
-35 -25 -21 -33 -28 -38 -39 -20 -15 -16 -22 -39 -38 -23 -21 -14 -0 -16 -56 -33 -28 -43 -36 -36 -42 -87 -113 -129 -122 -31 -13 -17 -9 -25 -5 -20 -0 -1 -0 -0 -0 -0 -0
-43 -24 -38 -39 -60 -40 -17 -18 -15 -39 -34 -32 -38 -50 -44 -31 -52 -0 -13 -5 -1 -17 -16 -24 -15 -69 -91 -96 -55 -59 -61 -34 -38 -2 -36 -0 -6 -0 -0 -16 -0 -31 -54
-34 -56 -76 -60 -24 -7 -6 -39 -47 -48 -45 -47 -40 -59 -36 -32 -39 -69 -60 -17 -10 -2 -0 -3 -5 -24 -55 -82 -72 -60 -0 -0 -4 -0 -9 -19 -22 -0 -1 -3 -4 -30 -47
-23 -137 -73 -35 -9 -8 -27 -46 -34 -38 -33 -55 -38 -50 -29 -28 -98 -0 -47 -46 -36 -9 -5 -2 -6 -2 -9 -74 -93 -0 -0 -0 -0 -0 -0 -1 -0 -0 -3 -28 -3 -10 -0
-36 -111 -20 -9 -19 -32 -31 -23 -22 -35 -50 -82 -49 -44 -34 -38 -75 -78 -63 -83 -40 -35 -53 -22 -28 -11 -33 -0 -0 -0 -0 -4 -0 -4 -2 -0 -0 -5 -0 -0 -0 -0 -0
-73 -24 -17 -20 -35 -38 -18 -35 -39 -27 -69 -61 -61 -65 -57 -63 -58 -83 -96 -0 -56 -57 -52 -45 -31 -28 -0 -0 -0 -0 -0 -0 -0 -0 -1 -4 -7 -0 -0 -0 -0 -0 -0
-14 -17 -41 -20 -34 -49 -46 -55 -55 -48 -24 -33 -41 -39 -63 -60 -68 -35 -76 -82 -73 -80 -88 -56 -3 -0 -0 -0 -0 -0 -0 -0 -0 -0 -6 -6 -0 -0 -0 -0 -0 -0 -0
-19 -92 -42 -91 -68 -60 -79 -28 -25 -30 -30 -36 -39 -31 -30 -24 -41 -63 -74 -85 -82 -41 -0 -68 -0 -0 -0 -0 -0 -0 -0 -0 -0 -0 -0 -0 -0 -0 -0 -0 -0 -0 -0
-17 -76 -33 -59 -52 -0 -0 -0 -16 -25 -19 -27 -39 -34 -43 -39 -56 -71 -52 -56 -67 -0 -0 -0 -0 -0 -0 -0 -0 -0 -0 -0 -0 -0 -0 -0 -0 -0 -0 -0 -0 -0 -0
-14 -37 -51 -0 -0 -0 -7 -0 -8 -23 -21 -36 -55 -58 -51 -36 -31 -53 -69 -37 -29 -24 -0 -0 -0 -0 -0 -0 -0 -0 -0 -0 -0 -0 -0 -0 -0 -0 -0 -0 -0 -0 -0
-29 -45 -0 -0 -0 -0 -6 -0 -40 -28 -15 -42 -111 -0 -0 -0 -21 -18 -29 -29 -0 -0 -0 -0 -0 -0 -0 -0 -0 -0 -0 -0 -0 -0 -0 -0 -0 -0 -0 -0 -0 -0 -0
-31 -29 -0 -0 -0 -0 -0 -0 -0 -23 -27 -0 -0 -0 -58 -0 -0 -0 -0 -0 -0 -0 -0 -0 -0 -0 -0 -0 -0 -0 -0 -0 -0 -0 -0 -0 -0 -0 -0 -0 -0 -0 -0
-15 -26 -43 -0 -0 -0 -0 -0 -0 -1 -0 -14 -1 -0 -0 -0 -0 -0 -0 -0 -0 -0 -0 -0 -0 -0 -0 -0 -0 -0 -0 -0 -0 -0 -0 -0 -0 -0 -0 -0 -0 -0 -0
-32 -22 -0 -0 -0 -0 -0 -0 -2 -0 -0 -1 -0 -0 -0 -0 -0 -0 -0 -0 -0 -0 -0 -0 -0 -0 -0 -0 -0 -0 -0 -0 -0 -0 -0 -0 -0 -0 -0 -0 -0 -0 -0
-23 -25 -62 -0 -0 -0 -0 -0 -0 -0 -0 -0 -0 -0 -0 -0 -0 -0 -0 -0 -0 -0 -0 -0 -0 -0 -0 -0 -0 -0 -0 -0 -0 -0 -0 -0 -0 -0 -0 -0 -0 -0 -0
Wind_Speed
7 7 10 12 10 10 10 13 13 13 9 12 13 16 15 14 19 18 21 23 17 15 17 14 15 15 15 16 13 11 9 8 6 5 4 2 1 3 4 1 4 4 6
6 8 11 10 10 10 13 16 14 13 14 17 18 17 19 18 22 17 18 18 14 15 19 20 16 15 14 15 13 10 9 8 8 8 5 4 1 2 4 1 1 4 7
6 10 12 13 13 12 15 16 16 16 17 17 16 20 21 19 20 19 17 19 13 15 20 24 20 16 15 15 13 10 9 9 9 8 8 5 2 0 2 5 7 12 6
6 10 13 14 14 15 16 17 17 17 17 16 18 21 24 17 17 19 17 16 13 17 19 19 18 15 13 14 13 10 9 10 10 9 9 6 4 2 5 5 9 8 8
7 10 13 15 16 17 17 18 17 16 16 18 17 20 18 16 17 16 16 15 12 16 22 20 16 15 14 12 13 11 10 11 10 11 10 6 4 4 4 8 7 6 7
7 11 13 14 16 16 17 17 16 15 16 18 19 18 16 18 18 19 16 17 17 17 19 20 17 15 14 15 13 12 10 12 11 12 11 9 6 4 5 5 8 10 8
8 10 13 15 15 16 17 16 14 15 17 15 17 16 18 20 21 20 21 20 20 21 19 18 16 14 15 17 14 13 11 13 12 13 11 8 10 7 7 8 13 13 14
7 12 14 15 15 14 12 9 11 14 13 10 13 15 20 21 21 23 24 24 24 22 18 14 10 9 15 16 15 11 12 13 15 14 10 9 9 8 10 12 10 10 10
10 13 14 15 13 12 12 11 9 8 9 8 7 13 15 21 18 19 22 26 21 16 15 12 12 14 13 10 12 11 12 14 15 13 12 10 8 9 12 13 12 9 11
10 12 14 14 13 11 9 8 5 5 6 5 13 3 17 16 16 16 20 17 15 19 21 13 10 12 9 10 11 11 13 15 16 13 12 11 12 14 14 14 9 7 9
11 11 12 12 10 9 8 8 9 10 11 6 4 13 2 18 19 16 17 16 16 18 17 12 9 8 8 8 8 11 13 15 16 14 13 13 13 16 14 11 8 7 10
10 10 9 10 10 10 10 10 11 12 12 13 12 13 2 8 15 9 13 17 15 17 15 9 6 8 6 6 8 10 9 8 16 10 12 15 17 17 11 8 6 10 9
11 9 10 11 11 11 12 13 14 14 14 14 14 17 21 27 23 9 4 17 12 13 13 10 7 4 5 7 7 4 10 15 13 16 20 20 17 12 7 5 4 7 8
11 11 13 13 13 15 15 15 15 14 13 14 15 18 22 23 23 15 3 1 5 11 11 12 10 4 4 3 4 5 5 10 15 21 14 16 16 12 9 6 8 6 9
13 13 14 15 16 16 15 14 14 14 13 13 15 18 22 20 6 7 3 1 5 3 12 12 12 7 3 2 4 3 8 18 22 19 25 20 20 14 14 12 8 8 6
13 14 14 15 16 16 15 15 13 13 14 13 13 14 21 22 19 6 3 10 13 4 7 15 14 8 5 4 7 10 16 19 22 21 19 20 15 13 12 10 8 9 6
13 14 15 16 17 17 16 15 15 16 16 15 14 13 15 20 19 23 23 21 5 3 3 11 12 6 7 9 11 11 12 13 15 19 18 15 12 9 11 6 5 7 7
13 16 18 16 16 17 17 16 17 16 15 16 16 13 16 18 19 25 20 5 6 4 7 7 8 7 10 10 13 12 12 14 15 17 18 13 9 6 7 7 7 7 7
14 15 15 15 14 16 18 18 18 17 20 19 19 19 14 12 7 5 3 2 2 5 8 9 9 11 14 13 12 13 11 12 11 11 9 6 6 7 8 11 8 4 10
12 13 12 13 15 15 17 17 17 17 20 21 21 20 21 20 21 15 13 15 12 11 7 7 10 10 11 12 16 20 14 10 11 10 7 6 2 4 9 10 8 9 13
12 11 11 14 14 12 10 17 18 20 21 21 20 22 23 23 21 19 19 18 18 10 13 8 13 14 15 20 19 17 13 9 9 13 6 4 4 6 8 8 12 15 13
14 12 11 12 14 11 9 9 20 19 23 24 25 26 22 27 29 30 29 29 35 37 43 41 35 35 35 26 22 13 22 27 16 28 12 8 3 8 14 12 13 13 13
14 12 12 11 11 9 9 9 19 23 22 23 25 26 25 28 30 31 30 30 28 29 35 44 50 47 46 46 43 43 41 37 35 28 17 14 19 18 7 13 13 13 13
15 14 12 10 9 6 9 9 17 22 25 24 26 20 26 28 28 29 27 20 21 22 28 35 43 45 44 44 42 37 30 8 17 24 30 21 25 14 14 12 12 12 13
17 17 14 12 8 6 9 7 11 19 15 18 11 19 22 26 27 25 24 25 16 16 22 31 35 42 44 41 38 22 25 26 31 33 26 21 20 15 13 12 11 11 12
17 17 16 10 7 9 10 9 7 19 13 13 12 21 24 24 27 25 25 28 35 39 42 41 35 39 33 30 39 35 37 34 31 27 25 17 18 16 14 11 10 10 11
Wind_Direction
277 309 324 336 342 348 346 343 342 345 342 336 331 319 315 310 300 297 287 284 278 263 267 279 285 281 272 261 257 247 233 224 220 226 217 249 311 310 304 322 325 29 89
281 314 325 327 341 347 346 345 346 341 337 330 322 318 311 305 295 297 287 286 280 269 271 276 282 278 268 261 256 242 231 202 199 191 199 202 187 46 74 24 47 107 110
281 317 324 329 329 333 335 338 334 330 328 324 318 312 309 305 295 292 288 279 275 273 275 273 275 271 264 260 253 238 216 187 185 191 181 197 188 1 74 91 90 117 112
295 317 322 325 330 331 331 330 329 324 323 319 312 307 304 303 304 287 285 279 276 274 276 276 274 268 263 258 251 237 208 182 184 184 172 159 197 126 108 98 110 94 85
310 318 324 325 331 330 328 328 326 323 321 315 313 303 305 306 301 297 284 276 277 276 276 276 277 266 263 255 250 238 199 184 183 173 174 196 164 139 106 105 91 85 84
311 320 323 323 326 327 326 326 321 322 321 314 309 304 302 295 297 289 286 278 278 279 272 273 273 271 262 258 248 233 203 185 181 175 167 161 157 169 128 110 99 96 88
318 322 327 328 329 326 326 325 325 325 321 318 311 307 301 293 290 283 277 275 273 272 273 273 278 268 262 257 249 233 202 176 174 170 166 169 145 150 135 116 115 110 111
332 335 334 334 332 332 336 345 340 336 334 335 322 313 297 292 284 270 265 264 266 267 271 276 276 276 263 257 251 222 193 177 168 167 171 172 154 151 132 118 112 100 91
339 341 341 341 342 349 349 351 355 354 346 345 343 325 315 285 291 276 265 259 268 270 268 276 271 274 272 250 244 218 192 174 166 166 169 169 160 147 129 119 112 98 79
354 349 350 352 358 3 15 30 49 60 19 13 323 5 290 306 294 280 264 271 268 265 265 273 272 275 272 257 240 210 181 172 169 168 163 159 147 138 128 119 107 88 77
1 5 5 10 25 46 64 95 106 136 142 111 68 315 4 282 294 286 263 264 266 264 265 270 273 273 270 254 236 221 197 187 174 162 150 154 149 138 129 117 103 80 88
15 15 36 50 77 84 96 114 124 132 132 137 136 138 343 292 169 320 274 260 259 261 264 270 270 270 268 249 242 233 201 267 172 190 165 141 137 130 125 118 98 88 79
25 54 63 92 90 91 109 115 120 117 123 127 138 161 173 199 249 137 50 255 250 255 261 269 262 264 258 243 238 193 147 155 210 127 130 129 134 133 126 129 88 84 77
52 73 91 102 103 118 122 110 101 109 111 131 142 161 196 212 235 232 358 128 240 253 257 253 252 246 233 228 151 162 182 156 138 130 134 121 125 120 112 112 95 83 77
63 80 88 100 121 119 111 97 116 126 111 73 121 205 190 222 321 347 359 167 235 207 243 245 247 227 184 144 150 149 134 131 130 122 123 127 119 110 108 104 95 82 60
50 69 68 90 98 109 103 109 104 96 83 55 320 267 197 205 156 49 107 257 245 166 243 231 234 219 189 169 127 124 116 121 121 117 119 115 117 114 103 100 85 73 36
62 72 79 91 103 110 103 99 93 88 99 82 317 293 261 226 146 201 205 124 119 194 173 229 225 180 164 137 126 127 128 132 127 115 113 105 113 110 100 94 65 36 18
67 85 96 82 80 84 83 99 117 117 104 90 73 61 249 234 200 176 108 100 110 142 128 158 190 173 149 138 127 138 150 120 127 115 107 113 117 116 87 72 60 47 42
84 85 83 55 37 46 71 98 128 139 82 101 108 88 219 207 42 59 67 191 156 169 194 190 182 181 188 167 139 133 126 117 128 109 131 141 124 90 73 74 61 18 56
66 66 38 30 33 26 63 149 156 148 104 99 94 89 109 103 102 83 77 90 97 103 129 163 175 160 155 146 126 121 131 151 168 174 178 189 118 77 67 67 51 45 64
68 50 28 36 23 357 284 162 137 83 100 61 60 101 132 165 108 106 110 108 108 113 125 163 135 148 160 167 152 168 162 149 158 191 165 187 80 56 49 38 67 76 62
76 55 21 29 45 9 288 289 117 144 101 86 91 120 140 128 126 125 119 125 135 128 153 151 168 172 169 170 173 135 112 116 189 182 97 78 50 61 78 58 62 62 54
77 52 49 34 31 2 271 266 134 104 78 82 96 109 129 115 116 116 110 156 168 172 165 140 141 153 140 146 145 156 144 143 156 124 101 87 180 93 29 64 66 60 49
85 74 59 35 33 327 248 257 81 76 92 83 122 165 135 104 108 104 96 166 169 170 171 170 154 145 146 153 158 154 124 120 100 113 170 192 154 84 85 68 60 47 43
101 94 75 60 40 283 255 291 33 65 46 61 33 62 81 103 104 100 96 104 116 162 173 173 170 160 151 155 159 112 112 112 123 147 166 119 125 90 89 88 71 62 59
96 104 95 62 39 259 253 258 349 72 47 45 35 70 89 97 105 107 106 112 119 126 139 157 166 162 172 175 137 155 142 135 131 134 153 99 111 99 94 94 87 71 60